Regional Weather Roundup
Issued by NWS Sioux Falls, SD

Home | Current Version | Previous Version | Graphics & Text | Print | Product List | Glossary Off
Versions: 1 2 3 4 5 6 7 8 9 10 11 12 13 14 15 16 17 18 19 20 21 22 23 24 25 26 27 28 29 30 31 32 33 34 35 36 37 38 39 40 41 42 43 44 45 46 47 48 49 50

000
ASUS43 KFSD 251402
RWRFSD

WEATHER ROUNDUP FOR SE SOUTH DAKOTA/SW MINNESOTA/NW IOWA
NATIONAL WEATHER SERVICE SIOUX FALLS SD
800 AM CST SUN FEB 25 2018

NOTE: "FAIR" INDICATES FEW OR NO CLOUDS BELOW 12,000 FEET WITH NO
SIGNIFICANT WEATHER AND OR OBSTRUCTIONS TO VISIBILITY.


SDZ038>040-050-052>070-251500-
SOUTHEAST SOUTH DAKOTA

CITY           SKY/WX    TMP DP  RH WIND       PRES   REMARKS
BROOKINGS      CLEAR     13   8  81 W17       29.72R WCI  -4
CHAMBERLAIN    CLEAR     21  11  67 W15       29.81R WCI   7
HURON          CLOUDY    19  14  81 W12       29.78R WCI   7
MADISON        FAIR      12  12 100 W16G24    29.73R WCI  -4
MITCHELL       CLEAR     18  10  71 W12       29.81R WCI   5
SIOUX FALLS    PTCLDY    18  10  71 W13       29.77R WCI   5
WINNER         FAIR      19   7  59 SW7       29.82R WCI  10
YANKTON        PTCLDY    24  13  62 W13       29.84R WCI  12
$$

MNZ071-072-080-081-089-090-097-098-251500-
SOUTHWEST MINNESOTA

CITY           SKY/WX    TMP DP  RH WIND       PRES   REMARKS
FAIRMONT       CLEAR     16  10  77 W18       29.74R WCI   0
JACKSON        CLEAR     16  10  79 SW23G31   29.72R HAZE    WCI  -2
LUVERNE        CLEAR     16   9  73 W14       29.76R WCI   1
MARSHALL       CLEAR     14   8  77 NW9       29.72R WCI   2
MONTEVIDEO     CLEAR     14  10  85 W10G17    29.68R WCI   1
PIPESTONE      CLEAR     10   5  79 W13       29.72R WCI  -5
REDWOOD FALLS  PTCLDY    14   7  73 W17       29.70R WCI  -3
TRACY          CLEAR     16  10  78 W9G16     29.70R WCI   4
WORTHINGTON    CLEAR     13   8  81 SW12      29.75R WCI  -1
$$

IAZ001>003-012>014-020>022-031-032-NEZ013-014-SDZ071-251500-
NORTHWEST IOWA

CITY           SKY/WX    TMP DP  RH WIND       PRES   REMARKS
CHEROKEE       PTCLDY    18  11  75 W8        29.83R WCI   7
DENISON        CLEAR     19  14  79 SW8       29.88R WCI   9
ESTHERVILLE    CLEAR     17  10  74 W22G29    29.73R WCI   0
LE MARS        CLEAR     21  12  68 S8        29.84R WCI  12
ORANGE CITY    CLEAR     16  12  86 W10       29.81R WCI   3
SHELDON        CLEAR     16  10  79 W15       29.77R WCI   1
SIOUX CITY     CLEAR     21  11  65 W8        29.87R WCI  11
SPENCER        CLEAR     19  10  68 W16       29.78R WCI   4
STORM LAKE     CLEAR     21  12  68 W21       29.79R WCI   6
$$

ABBREVIATIONS USED IN REMARKS
   TC - TEMPERATURE IN CELSIUS
  WCI - WIND CHILL INDEX
   HX - HEAT INDEX
  VSB - VISIBILITY





USA.gov is the U.S. government's official web portal to all federal, state and local government web resources and services.